Year,Month,Day,Hour,Minute,Value (Times are PST for temperature in C)
2016,08,19,00,00,21.80
2016,08,19,00,01,21.80
2016,08,19,00,02,21.80
2016,08,19,00,03,21.80
2016,08,19,00,04,21.80
2016,08,19,00,05,21.90
2016,08,19,00,06,21.90
2016,08,19,00,07,21.90
2016,08,19,00,08,21.90
2016,08,19,00,09,22.00
2016,08,19,00,10,22.00
2016,08,19,00,11,22.10
2016,08,19,00,12,22.10
2016,08,19,00,13,22.10
2016,08,19,00,14,22.20
2016,08,19,00,15,22.20
2016,08,19,00,16,22.30
2016,08,19,00,17,22.30
2016,08,19,00,18,22.40
2016,08,19,00,19,22.40
2016,08,19,00,20,22.40
2016,08,19,00,21,22.50
2016,08,19,00,22,22.60
2016,08,19,00,23,22.60
2016,08,19,00,24,22.70
2016,08,19,00,25,22.70
2016,08,19,00,26,22.80
2016,08,19,00,27,22.80
2016,08,19,00,28,22.90
2016,08,19,00,29,22.90
2016,08,19,00,30,23.00
2016,08,19,00,31,23.00
2016,08,19,00,32,23.10
2016,08,19,00,33,23.20
2016,08,19,00,34,23.30
2016,08,19,00,35,23.30
2016,08,19,00,36,23.40
2016,08,19,00,37,23.50
2016,08,19,00,38,23.60
2016,08,19,00,39,23.60
2016,08,19,00,40,23.60
2016,08,19,00,41,23.60
2016,08,19,00,42,23.70
2016,08,19,00,43,23.70
2016,08,19,00,44,23.70
2016,08,19,00,45,23.70
2016,08,19,00,46,23.70
2016,08,19,00,47,23.70
2016,08,19,00,48,23.70
2016,08,19,00,49,23.70
2016,08,19,00,50,23.80
2016,08,19,00,51,23.80
2016,08,19,00,52,23.80
2016,08,19,00,53,23.80
2016,08,19,00,54,23.80
2016,08,19,00,55,23.80
2016,08,19,00,56,23.80
2016,08,19,00,57,23.80
2016,08,19,00,58,23.80
2016,08,19,00,59,23.80
2016,08,19,01,00,23.80
2016,08,19,01,01,23.80
2016,08,19,01,02,23.80
2016,08,19,01,03,23.80
2016,08,19,01,04,23.80
2016,08,19,01,05,23.80
2016,08,19,01,06,23.80
2016,08,19,01,07,23.80
2016,08,19,01,08,23.80
2016,08,19,01,09,23.80
2016,08,19,01,10,23.80
2016,08,19,01,11,23.80
2016,08,19,01,12,23.80
2016,08,19,01,13,23.80
2016,08,19,01,14,23.80
2016,08,19,01,15,23.80
2016,08,19,01,16,23.80
2016,08,19,01,17,23.80
2016,08,19,01,18,23.80
2016,08,19,01,19,23.80
2016,08,19,01,20,23.80
2016,08,19,01,21,23.70
2016,08,19,01,22,23.70
2016,08,19,01,23,23.70
2016,08,19,01,24,23.70
2016,08,19,01,25,23.60
2016,08,19,01,26,23.60
2016,08,19,01,27,23.60
2016,08,19,01,28,23.60
2016,08,19,01,29,23.50
2016,08,19,01,30,23.50
2016,08,19,01,31,23.50
2016,08,19,01,32,23.50
2016,08,19,01,33,23.40
2016,08,19,01,34,23.40
2016,08,19,01,35,23.40
2016,08,19,01,36,23.40
2016,08,19,01,37,23.30
2016,08,19,01,38,23.30
2016,08,19,01,39,23.30
2016,08,19,01,40,23.30
2016,08,19,01,41,23.20
2016,08,19,01,42,23.20
2016,08,19,01,43,23.20
2016,08,19,01,44,23.10
2016,08,19,01,45,23.10
2016,08,19,01,46,23.00
2016,08,19,01,47,23.00
2016,08,19,01,48,22.90
2016,08,19,01,49,22.90
2016,08,19,01,50,22.80
2016,08,19,01,51,22.80
2016,08,19,01,52,22.80
2016,08,19,01,53,22.70
2016,08,19,01,54,22.70
2016,08,19,01,55,22.70
2016,08,19,01,56,22.60
2016,08,19,01,57,22.60
2016,08,19,01,58,22.60
2016,08,19,01,59,22.50
2016,08,19,02,00,22.50
2016,08,19,02,01,22.50
2016,08,19,02,02,22.40
2016,08,19,02,03,22.40
2016,08,19,02,04,22.40
2016,08,19,02,05,22.40
2016,08,19,02,06,22.40
2016,08,19,02,07,22.40
2016,08,19,02,08,22.30
2016,08,19,02,09,22.30
2016,08,19,02,10,22.30
2016,08,19,02,11,22.30
2016,08,19,02,12,22.30
2016,08,19,02,13,22.30
2016,08,19,02,14,22.30
2016,08,19,02,15,22.20
2016,08,19,02,16,22.20
2016,08,19,02,17,22.20
2016,08,19,02,18,22.20
2016,08,19,02,19,22.20
2016,08,19,02,20,22.20
2016,08,19,02,21,22.20
2016,08,19,02,22,22.10
2016,08,19,02,23,22.10
2016,08,19,02,24,22.10
2016,08,19,02,25,22.10
2016,08,19,02,26,22.10
2016,08,19,02,27,22.10
2016,08,19,02,28,22.10
2016,08,19,02,29,22.00
2016,08,19,02,30,22.00
2016,08,19,02,31,22.00
2016,08,19,02,32,21.90
2016,08,19,02,33,21.90
2016,08,19,02,34,21.90
2016,08,19,02,35,21.90
2016,08,19,02,36,21.90
2016,08,19,02,37,21.90
2016,08,19,02,38,21.80
2016,08,19,02,39,21.80
2016,08,19,02,40,21.80
2016,08,19,02,41,21.80
2016,08,19,02,42,21.80
2016,08,19,02,43,21.80
2016,08,19,02,44,21.80
2016,08,19,02,45,21.80
2016,08,19,02,46,21.80
2016,08,19,02,47,21.70
2016,08,19,02,48,21.70
2016,08,19,02,49,21.70
2016,08,19,02,50,21.70
2016,08,19,02,51,21.70
2016,08,19,02,52,21.70
2016,08,19,02,53,21.70
2016,08,19,02,54,21.70
2016,08,19,02,55,21.70
2016,08,19,02,56,21.70
2016,08,19,02,57,21.70
2016,08,19,02,58,21.70
2016,08,19,02,59,21.80
2016,08,19,03,00,21.80
2016,08,19,03,01,21.80
2016,08,19,03,02,21.80
2016,08,19,03,03,21.80
2016,08,19,03,04,21.80
2016,08,19,03,05,21.80
2016,08,19,03,06,21.80
2016,08,19,03,07,21.90
2016,08,19,03,08,21.90
2016,08,19,03,09,21.90
2016,08,19,03,10,21.90
2016,08,19,03,11,21.90
2016,08,19,03,12,21.90
2016,08,19,03,13,21.90
2016,08,19,03,14,21.90
2016,08,19,03,15,22.00
2016,08,19,03,16,22.00
2016,08,19,03,17,22.00
2016,08,19,03,18,22.10
2016,08,19,03,19,22.10
2016,08,19,03,20,22.10
2016,08,19,03,21,22.20
2016,08,19,03,22,22.20
2016,08,19,03,23,22.20
2016,08,19,03,24,22.20
2016,08,19,03,25,22.20
2016,08,19,03,26,22.20
2016,08,19,03,27,22.20
2016,08,19,03,28,22.20
2016,08,19,03,29,22.30
2016,08,19,03,30,22.30
2016,08,19,03,31,22.30
2016,08,19,03,32,22.30
2016,08,19,03,33,22.30
2016,08,19,03,34,22.30
2016,08,19,03,35,22.30
2016,08,19,03,36,22.30
2016,08,19,03,37,22.30
2016,08,19,03,38,22.30
2016,08,19,03,39,22.30
2016,08,19,03,40,22.30
2016,08,19,03,41,22.40
2016,08,19,03,42,22.40
2016,08,19,03,43,22.40
2016,08,19,03,44,22.40
2016,08,19,03,45,22.50
2016,08,19,03,46,22.50
2016,08,19,03,47,22.50
2016,08,19,03,48,22.60
2016,08,19,03,49,22.60
2016,08,19,03,50,22.60
2016,08,19,03,51,22.60
2016,08,19,03,52,22.60
2016,08,19,03,53,22.60
2016,08,19,03,54,22.60
2016,08,19,03,55,22.60
2016,08,19,03,56,22.60
2016,08,19,03,57,22.60
2016,08,19,03,58,22.60
2016,08,19,03,59,22.60
2016,08,19,04,00,22.60
2016,08,19,04,01,22.60
2016,08,19,04,02,22.60
2016,08,19,04,03,22.60
2016,08,19,04,04,22.60
2016,08,19,04,05,22.50
2016,08,19,04,06,22.50
2016,08,19,04,07,22.50
2016,08,19,04,08,22.50
2016,08,19,04,09,22.40
2016,08,19,04,10,22.40
2016,08,19,04,11,22.40
2016,08,19,04,12,22.40
2016,08,19,04,13,22.40
2016,08,19,04,14,22.40
2016,08,19,04,15,22.40
2016,08,19,04,16,22.30
2016,08,19,04,17,22.30
2016,08,19,04,18,22.30
2016,08,19,04,19,22.30
2016,08,19,04,20,22.30
2016,08,19,04,21,22.30
2016,08,19,04,22,22.30
2016,08,19,04,23,22.30
2016,08,19,04,24,22.30
2016,08,19,04,25,22.20
2016,08,19,04,26,22.20
2016,08,19,04,27,22.20
2016,08,19,04,28,22.20
2016,08,19,04,29,22.20
2016,08,19,04,30,22.20
2016,08,19,04,31,22.20
2016,08,19,04,32,22.20
2016,08,19,04,33,22.20
2016,08,19,04,34,22.20
2016,08,19,04,35,22.20
2016,08,19,04,36,22.20
2016,08,19,04,37,22.20
2016,08,19,04,38,22.10
2016,08,19,04,39,22.10
2016,08,19,04,40,22.10
2016,08,19,04,41,22.10
2016,08,19,04,42,22.10
2016,08,19,04,43,22.10
2016,08,19,04,44,22.10
2016,08,19,04,45,22.10
2016,08,19,04,46,22.10
2016,08,19,04,47,22.10
2016,08,19,04,48,22.10
2016,08,19,04,49,22.10
2016,08,19,04,50,22.10
2016,08,19,04,51,22.10
2016,08,19,04,52,22.10
2016,08,19,04,53,22.10
2016,08,19,04,54,22.10
2016,08,19,04,55,22.10
2016,08,19,04,56,22.10
2016,08,19,04,57,22.10
2016,08,19,04,58,22.20
2016,08,19,04,59,22.20
2016,08,19,05,00,22.20
2016,08,19,05,01,22.20
2016,08,19,05,02,22.20
2016,08,19,05,03,22.20
2016,08,19,05,04,22.20
2016,08,19,05,05,22.20
2016,08,19,05,06,22.20
2016,08,19,05,07,22.20
2016,08,19,05,08,22.20
2016,08,19,05,09,22.20
2016,08,19,05,10,22.20
2016,08,19,05,11,22.20
2016,08,19,05,12,22.20
2016,08,19,05,13,22.20
2016,08,19,05,14,22.20
2016,08,19,05,15,22.20
2016,08,19,05,16,22.20
2016,08,19,05,17,22.10
2016,08,19,05,18,22.10
2016,08,19,05,19,22.10
2016,08,19,05,20,22.10
2016,08,19,05,21,22.00
2016,08,19,05,22,22.00
2016,08,19,05,23,22.00
2016,08,19,05,24,21.90
2016,08,19,05,25,21.90
2016,08,19,05,26,21.90
2016,08,19,05,27,21.90
2016,08,19,05,28,21.80
2016,08,19,05,29,21.80
2016,08,19,05,30,21.80
2016,08,19,05,31,21.70
2016,08,19,05,32,21.70
2016,08,19,05,33,21.70
2016,08,19,05,34,21.60
2016,08,19,05,35,21.60
2016,08,19,05,36,21.60
2016,08,19,05,37,21.60
2016,08,19,05,38,21.50
2016,08,19,05,39,21.50
2016,08,19,05,40,21.40
2016,08,19,05,41,21.40
2016,08,19,05,42,21.40
2016,08,19,05,43,21.40
2016,08,19,05,44,21.40
2016,08,19,05,45,21.40
2016,08,19,05,46,21.30
2016,08,19,05,47,21.30
2016,08,19,05,48,21.30
2016,08,19,05,49,21.30
2016,08,19,05,50,21.30
2016,08,19,05,51,21.30
2016,08,19,05,52,21.30
2016,08,19,05,53,21.20
2016,08,19,05,54,21.20
2016,08,19,05,55,21.20
2016,08,19,05,56,21.20
2016,08,19,05,57,21.20
2016,08,19,05,58,21.20
2016,08,19,05,59,21.20
2016,08,19,06,00,21.20
2016,08,19,06,01,21.20
2016,08,19,06,02,21.20
2016,08,19,06,03,21.20
2016,08,19,06,04,21.20
2016,08,19,06,05,21.30
2016,08,19,06,06,21.30
2016,08,19,06,07,21.30
2016,08,19,06,08,21.30
2016,08,19,06,09,21.30
2016,08,19,06,10,21.30
2016,08,19,06,11,21.30
2016,08,19,06,12,21.30
2016,08,19,06,13,21.30
2016,08,19,06,14,21.40
2016,08,19,06,15,21.40
2016,08,19,06,16,21.40
2016,08,19,06,17,21.40
2016,08,19,06,18,21.40
2016,08,19,06,19,21.40
2016,08,19,06,20,21.40
2016,08,19,06,21,21.40
2016,08,19,06,22,21.40
2016,08,19,06,23,21.40
2016,08,19,06,24,21.50
2016,08,19,06,25,21.50
2016,08,19,06,26,21.50
2016,08,19,06,27,21.50
2016,08,19,06,28,21.50
2016,08,19,06,29,21.50
2016,08,19,06,30,21.60
2016,08,19,06,31,21.60
2016,08,19,06,32,21.60
2016,08,19,06,33,21.60
2016,08,19,06,34,21.60
2016,08,19,06,35,21.60
2016,08,19,06,36,21.60
2016,08,19,06,37,21.60
2016,08,19,06,38,21.60
2016,08,19,06,39,21.70
2016,08,19,06,40,21.70
2016,08,19,06,41,21.70
2016,08,19,06,42,21.70
2016,08,19,06,43,21.70
2016,08,19,06,44,21.70
2016,08,19,06,45,21.70
2016,08,19,06,46,21.70
2016,08,19,06,47,21.80
2016,08,19,06,48,21.80
2016,08,19,06,49,21.80
2016,08,19,06,50,21.80
2016,08,19,06,51,21.80
2016,08,19,06,52,21.80
2016,08,19,06,53,21.90
2016,08,19,06,54,21.90
2016,08,19,06,55,21.90
2016,08,19,06,56,21.90
2016,08,19,06,57,21.90
2016,08,19,06,58,21.90
2016,08,19,06,59,22.00
2016,08,19,07,00,22.00
2016,08,19,07,01,22.00
2016,08,19,07,02,22.10
2016,08,19,07,03,22.10
2016,08,19,07,04,22.10
2016,08,19,07,05,22.10
2016,08,19,07,06,22.20
2016,08,19,07,07,22.20
2016,08,19,07,08,22.20
2016,08,19,07,09,22.30
2016,08,19,07,10,22.30
2016,08,19,07,11,22.40
2016,08,19,07,12,22.40
2016,08,19,07,13,22.40
2016,08,19,07,14,22.50
2016,08,19,07,15,22.50
2016,08,19,07,16,22.50
2016,08,19,07,17,22.60
2016,08,19,07,18,22.60
2016,08,19,07,19,22.60
2016,08,19,07,20,22.70
2016,08,19,07,21,22.70
2016,08,19,07,22,22.70
2016,08,19,07,23,22.70
2016,08,19,07,24,22.70
2016,08,19,07,25,22.70
2016,08,19,07,26,22.80
2016,08,19,07,27,22.80
2016,08,19,07,28,22.80
2016,08,19,07,29,22.80
2016,08,19,07,30,22.90
2016,08,19,07,31,22.90
2016,08,19,07,32,22.90
2016,08,19,07,33,23.00
2016,08,19,07,34,23.00
2016,08,19,07,35,23.00
2016,08,19,07,36,23.10
2016,08,19,07,37,23.10
2016,08,19,07,38,23.10
2016,08,19,07,39,23.20
2016,08,19,07,40,23.20
2016,08,19,07,41,23.20
2016,08,19,07,42,23.30
2016,08,19,07,43,23.30
2016,08,19,07,44,23.30
2016,08,19,07,45,23.40
2016,08,19,07,46,23.50
2016,08,19,07,47,23.50
2016,08,19,07,48,23.60
2016,08,19,07,49,23.60
2016,08,19,07,50,23.70
2016,08,19,07,51,23.70
2016,08,19,07,52,23.80
2016,08,19,07,53,23.80
2016,08,19,07,54,23.80
2016,08,19,07,55,23.90
2016,08,19,07,56,23.90
2016,08,19,07,57,24.00
2016,08,19,07,58,24.00
2016,08,19,07,59,24.10
2016,08,19,08,00,24.10
2016,08,19,08,01,24.20
2016,08,19,08,02,24.20
2016,08,19,08,03,24.30
2016,08,19,08,04,24.40
2016,08,19,08,05,24.40
2016,08,19,08,06,24.50
2016,08,19,08,07,24.60
2016,08,19,08,08,24.70
2016,08,19,08,09,24.80
2016,08,19,08,10,24.90
2016,08,19,08,11,25.00
2016,08,19,08,12,25.10
2016,08,19,08,13,25.20
2016,08,19,08,14,25.30
2016,08,19,08,15,25.40
2016,08,19,08,16,25.50
2016,08,19,08,17,25.60
2016,08,19,08,18,25.70
2016,08,19,08,19,25.80
2016,08,19,08,20,25.80
2016,08,19,08,21,25.90
2016,08,19,08,22,26.00
2016,08,19,08,23,26.10
2016,08,19,08,24,26.10
2016,08,19,08,25,26.20
2016,08,19,08,26,26.30
2016,08,19,08,27,26.30
2016,08,19,08,28,26.40
2016,08,19,08,29,26.50
2016,08,19,08,30,26.50
2016,08,19,08,31,26.60
2016,08,19,08,32,26.70
2016,08,19,08,33,26.70
2016,08,19,08,34,26.80
2016,08,19,08,35,26.80
2016,08,19,08,36,26.90
2016,08,19,08,37,26.90
2016,08,19,08,38,26.90
2016,08,19,08,39,27.00
2016,08,19,08,40,27.00
2016,08,19,08,41,27.10
2016,08,19,08,42,27.10
2016,08,19,08,43,27.20
2016,08,19,08,44,27.20
2016,08,19,08,45,27.20
2016,08,19,08,46,27.30
2016,08,19,08,47,27.30
2016,08,19,08,48,27.40
2016,08,19,08,49,27.40
2016,08,19,08,50,27.50
2016,08,19,08,51,27.60
2016,08,19,08,52,27.60
2016,08,19,08,53,27.60
2016,08,19,08,54,27.70
2016,08,19,08,55,27.70
2016,08,19,08,56,27.80
2016,08,19,08,57,27.80
2016,08,19,08,58,27.80
2016,08,19,08,59,27.90
2016,08,19,09,00,27.90
2016,08,19,09,01,28.00
2016,08,19,09,02,28.10
2016,08,19,09,03,28.20
2016,08,19,09,04,28.20
2016,08,19,09,05,28.30
2016,08,19,09,06,28.40
2016,08,19,09,07,28.50
2016,08,19,09,08,28.60
2016,08,19,09,09,28.60
2016,08,19,09,10,28.70
2016,08,19,09,11,28.80
2016,08,19,09,12,28.80
2016,08,19,09,13,28.80
2016,08,19,09,14,28.90
2016,08,19,09,15,28.90
2016,08,19,09,16,29.00
2016,08,19,09,17,29.00
2016,08,19,09,18,29.10
2016,08,19,09,19,29.10
2016,08,19,09,20,29.10
2016,08,19,09,21,29.20
2016,08,19,09,22,29.20
2016,08,19,09,23,29.30
2016,08,19,09,24,29.30
2016,08,19,09,25,29.30
2016,08,19,09,26,29.40
2016,08,19,09,27,29.40
2016,08,19,09,28,29.40
2016,08,19,09,29,29.50
2016,08,19,09,30,29.50
2016,08,19,09,31,29.50
2016,08,19,09,32,29.60
2016,08,19,09,33,29.60
2016,08,19,09,34,29.70
2016,08,19,09,35,29.70
2016,08,19,09,36,29.70
2016,08,19,09,37,29.80
2016,08,19,09,38,29.80
2016,08,19,09,39,29.90
2016,08,19,09,40,30.00
2016,08,19,09,41,30.10
2016,08,19,09,42,30.10
2016,08,19,09,43,30.20
2016,08,19,09,44,30.30
2016,08,19,09,45,30.30
2016,08,19,09,46,30.40
2016,08,19,09,47,30.40
2016,08,19,09,48,30.50
2016,08,19,09,49,30.50
2016,08,19,09,50,30.50
2016,08,19,09,51,30.50
2016,08,19,09,52,30.60
2016,08,19,09,53,30.60
2016,08,19,09,54,30.60
2016,08,19,09,55,30.70
2016,08,19,09,56,30.70
2016,08,19,09,57,30.70
2016,08,19,09,58,30.70
2016,08,19,09,59,30.70
2016,08,19,10,00,30.70
2016,08,19,10,01,30.70
2016,08,19,10,02,30.80
2016,08,19,10,03,30.80
2016,08,19,10,04,30.80
2016,08,19,10,05,30.80
2016,08,19,10,06,30.80
2016,08,19,10,07,30.80
2016,08,19,10,08,30.90
2016,08,19,10,09,30.90
2016,08,19,10,10,31.00
2016,08,19,10,11,31.10
2016,08,19,10,12,31.10
2016,08,19,10,13,31.20
2016,08,19,10,14,31.20
2016,08,19,10,15,31.30
2016,08,19,10,16,31.40
2016,08,19,10,17,31.50
2016,08,19,10,18,31.60
2016,08,19,10,19,31.70
2016,08,19,10,20,31.80
2016,08,19,10,21,31.80
2016,08,19,10,22,31.80
2016,08,19,10,23,31.80
2016,08,19,10,24,31.80
2016,08,19,10,25,31.90
2016,08,19,10,26,31.90
2016,08,19,10,27,31.90
2016,08,19,10,28,31.90
2016,08,19,10,29,31.90
2016,08,19,10,30,32.00
2016,08,19,10,31,32.00
2016,08,19,10,32,32.10
2016,08,19,10,33,32.10
2016,08,19,10,34,32.10
2016,08,19,10,35,32.20
2016,08,19,10,36,32.20
2016,08,19,10,37,32.30
2016,08,19,10,38,32.30
2016,08,19,10,39,32.30
2016,08,19,10,40,32.20
2016,08,19,10,41,32.20
2016,08,19,10,42,32.10
2016,08,19,10,43,32.10
2016,08,19,10,44,32.10
2016,08,19,10,45,32.10
2016,08,19,10,46,32.20
2016,08,19,10,47,32.20
2016,08,19,10,48,32.20
2016,08,19,10,49,32.20
2016,08,19,10,50,32.20
2016,08,19,10,51,32.20
2016,08,19,10,52,32.30
2016,08,19,10,53,32.30
2016,08,19,10,54,32.40
2016,08,19,10,55,32.40
2016,08,19,10,56,32.40
2016,08,19,10,57,32.50
2016,08,19,10,58,32.50
2016,08,19,10,59,32.60
2016,08,19,11,00,32.70
2016,08,19,11,01,32.80
2016,08,19,11,02,32.80
2016,08,19,11,03,32.80
2016,08,19,11,04,32.80
2016,08,19,11,05,32.90
2016,08,19,11,06,32.90
2016,08,19,11,07,33.00
2016,08,19,11,08,33.10
2016,08,19,11,09,33.10
2016,08,19,11,10,33.20
2016,08,19,11,11,33.20
2016,08,19,11,12,33.20
2016,08,19,11,13,33.10
2016,08,19,11,14,32.90
2016,08,19,11,15,32.80
2016,08,19,11,16,32.80
2016,08,19,11,17,32.70
2016,08,19,11,18,32.60
2016,08,19,11,19,32.40
2016,08,19,11,20,32.30
2016,08,19,11,21,32.20
2016,08,19,11,22,32.10
2016,08,19,11,23,32.00
2016,08,19,11,24,31.90
2016,08,19,11,25,31.70
2016,08,19,11,26,31.60
2016,08,19,11,27,31.50
2016,08,19,11,28,31.50
2016,08,19,11,29,31.40
2016,08,19,11,30,31.40
2016,08,19,11,31,31.40
2016,08,19,11,32,31.30
2016,08,19,11,33,31.30
2016,08,19,11,34,31.10
2016,08,19,11,35,31.00
2016,08,19,11,36,30.80
2016,08,19,11,37,30.70
2016,08,19,11,38,30.50
2016,08,19,11,39,30.50
2016,08,19,11,40,30.40
2016,08,19,11,41,30.40
2016,08,19,11,42,30.40
2016,08,19,11,43,30.40
2016,08,19,11,44,30.40
2016,08,19,11,45,30.30
2016,08,19,11,46,30.20
2016,08,19,11,47,30.20
2016,08,19,11,48,30.20
2016,08,19,11,49,30.20
2016,08,19,11,50,30.10
2016,08,19,11,51,30.10
2016,08,19,11,52,30.10
2016,08,19,11,53,30.10
2016,08,19,11,54,30.10
2016,08,19,11,55,30.20
2016,08,19,11,56,30.20
2016,08,19,11,57,30.20
2016,08,19,11,58,30.20
2016,08,19,11,59,30.20
2016,08,19,12,00,30.30
2016,08,19,12,01,30.30
2016,08,19,12,02,30.30
2016,08,19,12,03,30.40
2016,08,19,12,04,30.40
2016,08,19,12,05,30.30
2016,08,19,12,06,30.30
2016,08,19,12,07,30.30
2016,08,19,12,08,30.30
2016,08,19,12,09,30.30
2016,08,19,12,10,30.30
2016,08,19,12,11,30.30
2016,08,19,12,12,30.30
2016,08,19,12,13,30.30
2016,08,19,12,14,30.30
2016,08,19,12,15,30.30
2016,08,19,12,16,30.30
2016,08,19,12,17,30.40
2016,08,19,12,18,30.50
2016,08,19,12,19,30.60
2016,08,19,12,20,30.70
2016,08,19,12,21,30.80
2016,08,19,12,22,30.80
2016,08,19,12,23,30.90
2016,08,19,12,24,31.00
2016,08,19,12,25,31.10
2016,08,19,12,26,31.10
2016,08,19,12,27,31.10
2016,08,19,12,28,31.20
2016,08,19,12,29,31.20
2016,08,19,12,30,31.30
2016,08,19,12,31,31.20
2016,08,19,12,32,31.20
2016,08,19,12,33,31.20
2016,08,19,12,34,31.30
2016,08,19,12,35,31.40
2016,08,19,12,36,31.40
2016,08,19,12,37,31.50
2016,08,19,12,38,31.50
2016,08,19,12,39,31.50
2016,08,19,12,40,31.60
2016,08,19,12,41,31.50
2016,08,19,12,42,31.50
2016,08,19,12,43,31.60
2016,08,19,12,44,31.60
2016,08,19,12,45,31.70
2016,08,19,12,46,31.70
2016,08,19,12,47,31.70
2016,08,19,12,48,31.70
2016,08,19,12,49,31.70
2016,08,19,12,50,31.80
2016,08,19,12,51,31.80
2016,08,19,12,52,31.80
2016,08,19,12,53,31.80
2016,08,19,12,54,31.90
2016,08,19,12,55,31.90
2016,08,19,12,56,31.90
2016,08,19,12,57,31.90
2016,08,19,12,58,31.90
2016,08,19,12,59,31.90
2016,08,19,13,00,31.80
2016,08,19,13,01,31.80
2016,08,19,13,02,31.80
2016,08,19,13,03,31.80
2016,08,19,13,04,31.80
2016,08,19,13,05,31.80
2016,08,19,13,06,31.80
2016,08,19,13,07,31.80
2016,08,19,13,08,31.80
2016,08,19,13,09,31.90
2016,08,19,13,10,31.90
2016,08,19,13,11,31.90
2016,08,19,13,12,32.00
2016,08,19,13,13,32.00
2016,08,19,13,14,32.10
2016,08,19,13,15,32.10
2016,08,19,13,16,32.10
2016,08,19,13,17,32.10
2016,08,19,13,18,32.10
2016,08,19,13,19,32.10
2016,08,19,13,20,32.10
2016,08,19,13,21,32.10
2016,08,19,13,22,32.00
2016,08,19,13,23,32.00
2016,08,19,13,24,32.00
2016,08,19,13,25,32.10
2016,08,19,13,26,32.10
2016,08,19,13,27,32.20
2016,08,19,13,28,32.30
2016,08,19,13,29,32.30
2016,08,19,13,30,32.30
2016,08,19,13,31,32.30
2016,08,19,13,32,32.30
2016,08,19,13,33,32.30
2016,08,19,13,34,32.20
2016,08,19,13,35,32.20
2016,08,19,13,36,32.30
2016,08,19,13,37,32.40
2016,08,19,13,38,32.50
2016,08,19,13,39,32.60
2016,08,19,13,40,32.60
2016,08,19,13,41,32.70
2016,08,19,13,42,32.70
2016,08,19,13,43,32.70
2016,08,19,13,44,32.60
2016,08,19,13,45,32.60
2016,08,19,13,46,32.60
2016,08,19,13,47,32.70
2016,08,19,13,48,32.60
2016,08,19,13,49,32.60
2016,08,19,13,50,32.60
2016,08,19,13,51,32.50
2016,08,19,13,52,32.50
2016,08,19,13,53,32.50
2016,08,19,13,54,32.50
2016,08,19,13,55,32.50
2016,08,19,13,56,32.60
2016,08,19,13,57,32.60
2016,08,19,13,58,32.60
2016,08,19,13,59,32.60
2016,08,19,14,00,32.60
2016,08,19,14,01,32.60
2016,08,19,14,02,32.60
2016,08,19,14,03,32.60
2016,08,19,14,04,32.50
2016,08,19,14,05,32.50
2016,08,19,14,06,32.50
2016,08,19,14,07,32.50
2016,08,19,14,08,32.60
2016,08,19,14,09,32.60
2016,08,19,14,10,32.60
2016,08,19,14,11,32.60
2016,08,19,14,12,32.60
2016,08,19,14,13,32.60
2016,08,19,14,14,32.60
2016,08,19,14,15,32.70
2016,08,19,14,16,32.70
2016,08,19,14,17,32.70
2016,08,19,14,18,32.80
2016,08,19,14,19,32.80
2016,08,19,14,20,32.90
2016,08,19,14,21,33.00
2016,08,19,14,22,33.00
2016,08,19,14,23,33.10
2016,08,19,14,24,33.00
2016,08,19,14,25,32.90
2016,08,19,14,26,32.90
2016,08,19,14,27,32.80
2016,08,19,14,28,32.80
2016,08,19,14,29,32.80
2016,08,19,14,30,32.70
2016,08,19,14,31,32.70
2016,08,19,14,32,32.70
2016,08,19,14,33,32.70
2016,08,19,14,34,32.60
2016,08,19,14,35,32.60
2016,08,19,14,36,32.50
2016,08,19,14,37,32.50
2016,08,19,14,38,32.40
2016,08,19,14,39,32.40
2016,08,19,14,40,32.40
2016,08,19,14,41,32.40
2016,08,19,14,42,32.40
2016,08,19,14,43,32.50
2016,08,19,14,44,32.60
2016,08,19,14,45,32.60
2016,08,19,14,46,32.70
2016,08,19,14,47,32.70
2016,08,19,14,48,32.70
2016,08,19,14,49,32.80
2016,08,19,14,50,32.80
2016,08,19,14,51,32.80
2016,08,19,14,52,32.80
2016,08,19,14,53,32.80
2016,08,19,14,54,32.80
2016,08,19,14,55,32.80
2016,08,19,14,56,32.80
2016,08,19,14,57,32.80
2016,08,19,14,58,32.80
2016,08,19,14,59,32.80
2016,08,19,15,00,32.90
2016,08,19,15,01,32.90
2016,08,19,15,02,32.90
2016,08,19,15,03,33.00
2016,08,19,15,04,33.00
2016,08,19,15,05,33.10
2016,08,19,15,06,33.10
2016,08,19,15,07,33.20
2016,08,19,15,08,33.20
2016,08,19,15,09,33.20
2016,08,19,15,10,33.30
2016,08,19,15,11,33.30
2016,08,19,15,12,33.20
2016,08,19,15,13,33.10
2016,08,19,15,14,33.00
2016,08,19,15,15,33.00
2016,08,19,15,16,33.00
2016,08,19,15,17,33.00
2016,08,19,15,18,33.00
2016,08,19,15,19,33.10
2016,08,19,15,20,33.10
2016,08,19,15,21,33.10
2016,08,19,15,22,33.10
2016,08,19,15,23,33.10
2016,08,19,15,24,33.20
2016,08,19,15,25,33.20
2016,08,19,15,26,33.30
2016,08,19,15,27,33.30
2016,08,19,15,28,33.30
2016,08,19,15,29,33.30
2016,08,19,15,30,33.30
2016,08,19,15,31,33.30
2016,08,19,15,32,33.30
2016,08,19,15,33,33.30
2016,08,19,15,34,33.40
2016,08,19,15,35,33.30
2016,08,19,15,36,33.20
2016,08,19,15,37,33.20
2016,08,19,15,38,33.10
2016,08,19,15,39,33.00
2016,08,19,15,40,33.00
2016,08,19,15,41,32.90
2016,08,19,15,42,32.80
2016,08,19,15,43,32.80
2016,08,19,15,44,32.80
2016,08,19,15,45,32.80
2016,08,19,15,46,32.80
2016,08,19,15,47,32.80
2016,08,19,15,48,32.90
2016,08,19,15,49,32.90
2016,08,19,15,50,32.90
2016,08,19,15,51,33.00
2016,08,19,15,52,33.00
2016,08,19,15,53,33.10
2016,08,19,15,54,33.10
2016,08,19,15,55,33.10
2016,08,19,15,56,33.20
2016,08,19,15,57,33.30
2016,08,19,15,58,33.40
2016,08,19,15,59,33.50
2016,08,19,16,00,33.50
2016,08,19,16,01,33.60
2016,08,19,16,02,33.60
2016,08,19,16,03,33.60
2016,08,19,16,04,33.60
2016,08,19,16,05,33.50
2016,08,19,16,06,33.50
2016,08,19,16,07,33.40
2016,08,19,16,08,33.40
2016,08,19,16,09,33.40
2016,08,19,16,10,33.40
2016,08,19,16,11,33.50
2016,08,19,16,12,33.50
2016,08,19,16,13,33.60
2016,08,19,16,14,33.60
2016,08,19,16,15,33.60
2016,08,19,16,16,33.70
2016,08,19,16,17,33.70
2016,08,19,16,18,33.70
2016,08,19,16,19,33.70
2016,08,19,16,20,33.70
2016,08,19,16,21,33.60
2016,08,19,16,22,33.50
2016,08,19,16,23,33.40
2016,08,19,16,24,33.40
2016,08,19,16,25,33.40
2016,08,19,16,26,33.40
2016,08,19,16,27,33.50
2016,08,19,16,28,33.50
2016,08,19,16,29,33.40
2016,08,19,16,30,33.50
2016,08,19,16,31,33.50
2016,08,19,16,32,33.60
2016,08,19,16,33,33.60
2016,08,19,16,34,33.60
2016,08,19,16,35,33.60
2016,08,19,16,36,33.60
2016,08,19,16,37,33.60
2016,08,19,16,38,33.70
2016,08,19,16,39,33.70
2016,08,19,16,40,33.70
2016,08,19,16,41,33.70
2016,08,19,16,42,33.70
2016,08,19,16,43,33.70
2016,08,19,16,44,33.80
2016,08,19,16,45,33.70
2016,08,19,16,46,33.70
2016,08,19,16,47,33.60
2016,08,19,16,48,33.60
2016,08,19,16,49,33.60
2016,08,19,16,50,33.60
2016,08,19,16,51,33.60
2016,08,19,16,52,33.60
2016,08,19,16,53,33.50
2016,08,19,16,54,33.50
2016,08,19,16,55,33.40
2016,08,19,16,56,33.40
2016,08,19,16,57,33.30
2016,08,19,16,58,33.30
2016,08,19,16,59,33.20
2016,08,19,17,00,33.20
2016,08,19,17,01,33.10
2016,08,19,17,02,33.10
2016,08,19,17,03,33.00
2016,08,19,17,04,33.00
2016,08,19,17,05,33.00
2016,08,19,17,06,33.00
2016,08,19,17,07,33.00
2016,08,19,17,08,32.90
2016,08,19,17,09,32.90
2016,08,19,17,10,32.90
2016,08,19,17,11,32.90
2016,08,19,17,12,32.90
2016,08,19,17,13,32.90
2016,08,19,17,14,32.90
2016,08,19,17,15,32.80
2016,08,19,17,16,32.80
2016,08,19,17,17,32.80
2016,08,19,17,18,32.80
2016,08,19,17,19,32.90